Williamsburg, VA

6:41 AM EDT on April 29, 2017 (GMT -0400)
Williamsburg-jamestown

Weather History for KJGG - June, 2013

Change the Weather History Date:

Friday, June 28, 2013

  Actual Average Record
Temperature  
Mean Temperature 84 °F -  
Max Temperature 93 °F 87 °F 104 °F (2010)
Min Temperature 75 °F 63 °F 52 °F (1981)
Cooling Degree Days 19    
Growing Degree Days 34 (Base 50)    
Moisture  
Dew Point 72 °F    
Average Humidity 73    
Maximum Humidity 94    
Minimum Humidity 49    
Precipitation  
Precipitation 0.00 in - - ()
Sea Level Pressure  
Sea Level Pressure 29.62 in    
Wind  
Wind Speed 6 mph (SW)    
Max Wind Speed 12 mph    
Max Gust Speed 23 mph    
Visibility 10 miles    
Events      
Averages and records for this station are not official NWS values.
T = Trace of Precipitation, MM = Missing Value Source: NWS Daily Summary

Daily Weather History Graph

Daily Weather History Graph

Search for Another Location

Airport or City:

Trip Planner

Search our weather history database for the weather conditions in past years. The results will help you decide how hot, cold, wet, or windy it might be!

Date:

Astronomy

Jun. 28, 2013 Rise Set
Actual Time 5:49 AM EDT 8:31 PM EDT
Civil Twilight 5:18 AM EDT 9:02 PM EDT
Nautical Twilight 4:39 AM EDT 9:40 PM EDT
Astronomical Twilight 3:56 AM EDT 10:24 PM EDT
Moon No Moon Rise 11:45 AM EDT (6/28)
Length of Visible Light 15h 44m
Length of Day
14h 42m
Waning Gibbous, 66% of the Moon is Illuminated
Jun 28
Waning Gibbous
Jun 30
Last Quarter
Jul 8
New
Jul 15
First Quarter
Jul 22
Full

Hourly Weather History & Observations

Time (EDT) Temp. Heat Index Dew Point Humidity Pressure Visibility Wind Dir Wind Speed Gust Speed Precip Events Conditions
12:15 AM 75.2 °F - 73.4 °F 94% 29.69 in 10.0 mi SW 3.5 mph - N/A   Clear
12:35 AM 75.2 °F - 73.4 °F 94% 29.69 in 10.0 mi West 5.8 mph - N/A   Clear
12:55 AM 75.2 °F - 73.4 °F 94% 29.69 in 10.0 mi WSW 5.8 mph - N/A   Clear
1:15 AM 75.2 °F - 73.4 °F 94% 29.70 in 10.0 mi Calm Calm - N/A   Scattered Clouds
1:35 AM 75.2 °F - 73.4 °F 94% 29.69 in 10.0 mi SW 4.6 mph - N/A   Scattered Clouds
1:55 AM 75.2 °F - 73.4 °F 94% 29.69 in 10.0 mi SW 3.5 mph - N/A   Scattered Clouds
2:35 AM 75.2 °F - 73.4 °F 94% 29.67 in 10.0 mi SW 5.8 mph - N/A   Mostly Cloudy
2:55 AM 75.2 °F - 73.4 °F 94% 29.67 in 10.0 mi SW 5.8 mph - N/A   Mostly Cloudy
3:15 AM 75.2 °F - 73.4 °F 94% 29.66 in 10.0 mi SW 5.8 mph - N/A   Mostly Cloudy
3:35 AM 75.2 °F - 73.4 °F 94% 29.65 in 10.0 mi SSW 4.6 mph - N/A   Overcast
3:55 AM 75.2 °F - 73.4 °F 94% 29.65 in 10.0 mi SSW 3.5 mph - N/A   Overcast
4:15 AM 75.2 °F - 73.4 °F 94% 29.65 in 10.0 mi SW 8.1 mph - N/A   Overcast
4:35 AM 75.2 °F - 73.4 °F 94% 29.65 in 10.0 mi WSW 6.9 mph 17.3 mph N/A   Overcast
4:55 AM 75.2 °F - 73.4 °F 94% 29.66 in 10.0 mi WSW 6.9 mph - N/A   Overcast
5:15 AM 75.2 °F - 73.4 °F 94% 29.65 in 10.0 mi WSW 6.9 mph - N/A   Overcast
5:35 AM 75.2 °F - 73.4 °F 94% 29.66 in 10.0 mi SW 6.9 mph - N/A   Overcast
5:55 AM 75.2 °F - 73.4 °F 94% 29.66 in 10.0 mi SW 9.2 mph - N/A   Overcast
6:15 AM 75.2 °F - 73.4 °F 94% 29.67 in 10.0 mi WSW 6.9 mph - N/A   Overcast
6:35 AM 75.2 °F - 73.4 °F 94% 29.66 in 10.0 mi SW 3.5 mph - N/A   Mostly Cloudy
6:55 AM 75.2 °F - 73.4 °F 94% 29.66 in 10.0 mi WSW 5.8 mph - N/A   Scattered Clouds
7:15 AM 75.2 °F - 73.4 °F 94% 29.66 in 10.0 mi WSW 5.8 mph - N/A   Mostly Cloudy
7:35 AM 75.2 °F - 73.4 °F 94% 29.66 in 10.0 mi WSW 4.6 mph - N/A   Overcast
7:55 AM 77.0 °F - 73.4 °F 89% 29.66 in 10.0 mi WSW 5.8 mph - N/A   Mostly Cloudy
8:55 AM 78.8 °F - 73.4 °F 83% 29.65 in 10.0 mi SW 6.9 mph - N/A   Scattered Clouds
9:15 AM 80.6 °F 85.4 °F 73.4 °F 79% 29.64 in 10.0 mi SSW 4.6 mph - N/A   Scattered Clouds
9:35 AM 82.4 °F 88.2 °F 73.4 °F 74% 29.63 in 10.0 mi SSW 8.1 mph - N/A   Scattered Clouds
9:55 AM 82.4 °F 88.2 °F 73.4 °F 74% 29.63 in 10.0 mi WSW 6.9 mph - N/A   Scattered Clouds
10:15 AM 84.2 °F 90.9 °F 73.4 °F 70% 29.64 in 10.0 mi WSW 6.9 mph - N/A   Scattered Clouds
10:35 AM 84.2 °F 90.9 °F 73.4 °F 70% 29.64 in 10.0 mi WSW 9.2 mph - N/A   Clear
10:55 AM 84.2 °F 90.9 °F 73.4 °F 70% 29.65 in 10.0 mi SSW 10.4 mph - N/A   Clear
11:15 AM 86.0 °F 93.4 °F 73.4 °F 66% 29.65 in 10.0 mi SW 6.9 mph - N/A   Scattered Clouds
11:35 AM 87.8 °F 95.6 °F 73.4 °F 62% 29.65 in 10.0 mi WSW 10.4 mph - N/A   Scattered Clouds
11:55 AM 87.8 °F 95.6 °F 73.4 °F 62% 29.65 in 10.0 mi WSW 5.8 mph 16.1 mph N/A   Scattered Clouds
12:15 PM 89.6 °F 98.2 °F 73.4 °F 59% 29.65 in 10.0 mi West 9.2 mph - N/A   Scattered Clouds
12:35 PM 89.6 °F 98.2 °F 73.4 °F 59% 29.64 in 10.0 mi WSW 5.8 mph - N/A   Scattered Clouds
12:55 PM 89.6 °F 98.2 °F 73.4 °F 59% 29.64 in 10.0 mi WSW 9.2 mph - N/A   Scattered Clouds
1:15 PM 91.4 °F 100.1 °F 73.4 °F 55% 29.63 in 10.0 mi SW 11.5 mph - N/A   Scattered Clouds
1:35 PM 91.4 °F 100.1 °F 73.4 °F 55% 29.62 in 10.0 mi West 10.4 mph - N/A   Clear
1:55 PM 89.6 °F 96.2 °F 71.6 °F 55% 29.62 in 10.0 mi WSW 5.8 mph - N/A   Scattered Clouds
2:15 PM 91.4 °F 98.4 °F 71.6 °F 52% 29.62 in 10.0 mi WSW 11.5 mph - N/A   Scattered Clouds
2:35 PM 91.4 °F 100.1 °F 73.4 °F 55% 29.61 in 10.0 mi WSW 9.2 mph - N/A   Scattered Clouds
2:55 PM 91.4 °F 100.1 °F 73.4 °F 55% 29.59 in 10.0 mi SSW 6.9 mph - N/A   Scattered Clouds
3:15 PM 93.2 °F 100.5 °F 71.6 °F 49% 29.59 in 10.0 mi WSW 9.2 mph - N/A   Clear
3:35 PM 93.2 °F 100.5 °F 71.6 °F 49% 29.57 in 10.0 mi SW 9.2 mph - N/A   Clear
3:55 PM 93.2 °F 102.4 °F 73.4 °F 52% 29.57 in 10.0 mi SW 8.1 mph - N/A   Clear
4:15 PM 91.4 °F 100.1 °F 73.4 °F 55% 29.56 in 10.0 mi South 11.5 mph 17.3 mph N/A   Scattered Clouds
4:35 PM 91.4 °F 100.1 °F 73.4 °F 55% 29.56 in 10.0 mi South 10.4 mph 17.3 mph N/A   Scattered Clouds
4:55 PM 91.4 °F 98.4 °F 71.6 °F 52% 29.56 in 10.0 mi SSW 8.1 mph - N/A   Scattered Clouds
5:15 PM 89.6 °F 98.2 °F 73.4 °F 59% 29.57 in 10.0 mi SSW 9.2 mph - N/A   Clear
5:35 PM 89.6 °F 98.2 °F 73.4 °F 59% 29.56 in 10.0 mi SSW 9.2 mph - N/A   Clear
5:55 PM 87.8 °F 95.6 °F 73.4 °F 62% 29.55 in 10.0 mi SSW 8.1 mph - N/A   Clear
6:15 PM 87.8 °F 95.6 °F 73.4 °F 62% 29.55 in 10.0 mi SSW 6.9 mph - N/A   Clear
6:35 PM 87.8 °F 95.6 °F 73.4 °F 62% 29.55 in 10.0 mi SSW 8.1 mph - N/A   Clear
6:55 PM 87.8 °F 95.6 °F 73.4 °F 62% 29.57 in 10.0 mi SSW 9.2 mph - N/A   Clear
7:15 PM 87.8 °F 95.6 °F 73.4 °F 62% 29.56 in 10.0 mi South 10.4 mph - N/A   Clear
7:35 PM 86.0 °F 93.4 °F 73.4 °F 66% 29.56 in 10.0 mi SSW 9.2 mph - N/A   Clear
7:55 PM 86.0 °F 93.4 °F 73.4 °F 66% 29.56 in 10.0 mi SW 8.1 mph - N/A   Clear
8:15 PM 84.2 °F 90.9 °F 73.4 °F 70% 29.57 in 10.0 mi SW 8.1 mph 17.3 mph N/A   Clear
8:35 PM 84.2 °F 88.4 °F 69.8 °F 62% 29.56 in 10.0 mi SW 10.4 mph 18.4 mph N/A   Clear
8:55 PM 82.4 °F 86.3 °F 69.8 °F 66% 29.57 in 10.0 mi SSW 8.1 mph - N/A   Clear
9:15 PM 82.4 °F 86.3 °F 69.8 °F 66% 29.58 in 10.0 mi SSW 5.8 mph - N/A   Clear
9:35 PM 80.6 °F 82.7 °F 66.2 °F 61% 29.60 in 10.0 mi SW 10.4 mph 18.4 mph N/A   Clear
9:55 PM 80.6 °F 82.7 °F 66.2 °F 61% 29.61 in 10.0 mi WSW 8.1 mph 17.3 mph N/A   Clear
10:15 PM 78.8 °F - 66.2 °F 65% 29.61 in 10.0 mi SW 6.9 mph - N/A   Clear
10:35 PM 78.8 °F - 66.2 °F 65% 29.61 in 10.0 mi WSW 5.8 mph - N/A   Clear
10:55 PM 78.8 °F - 68.0 °F 69% 29.61 in 10.0 mi SW 5.8 mph 17.3 mph N/A   Clear
11:15 PM 78.8 °F - 68.0 °F 69% 29.60 in 10.0 mi SSW 9.2 mph - N/A   Clear
11:35 PM 78.8 °F - 68.0 °F 69% 29.62 in 10.0 mi SW 11.5 mph - N/A   Clear
11:55 PM 78.8 °F - 69.8 °F 74% 29.62 in 10.0 mi SW 9.2 mph 23.0 mph N/A   Clear